Showing default

OPS 9325 (IDSCS 12), 2652

Orbit data source: Space-Track

OPS 9325 (IDSCS 12), 2652 is a payload satellite owned by USAF SSD (US) in GEO that was launched on Wed, 18 Jan 1967 UTC via a TITAN IIIC launch vehicle from the Air Force Eastern Test Range (AFETR). Payload-class satellites include a variety of spacecraft equipped with specific instruments for various scientific and technological missions. These include communications satellites like Starlink; space stations such as the ISS; scientific satellites like the Hubble; Earth observation satellites from companies like Planet Labs, Umbra, and HawkEye 360; GPS; miniature CubeSats for education and research; and military/defense satellites.

Not visible in the next 10 days
Identifier
2652, 1967-003E
Orbit
GEO
Country
Flag of USUS
Related business
Manufacturer
Philco-Ford WDL
Mission
Non-operational spacecraft
Bus & Motor
IDCSP, Unknown motor
Mass
45 kg wet, 45 kg dry
Launch date (UTC)
1967-01-18 (59 years ago)
Launch vehicle
TITAN IIIC
Launch site
Air Force Eastern Test Range (AFETR)
Object type
Payload
Rocket body
Debris
Shape & HBR
Unknown
Radar Cross Section
Small (<0.1 m²)

Expand to show TLE details & history
Last TLE update: 1 week ago

TLE from 1 week ago
0 OPS 9325 (IDSCS 12)
1  2652U 67003E   26027.16902128 -.00000095  00000-0  00000+0 0  9991
2  2652   7.9940  47.0616 0035930  77.9337 282.5192  1.07942608138598
Epoch: 2026-01-27T04:03Z
TLE epoch observation values (Epoch: 2026-01-27T04:03:23.438Z)
Latitude
-0°
Longitude
-140.18174°
Altitude
33,733.071 km
Speed
3.154 km/s
True Right ascension
03h 08m 28s
True Declination
0° 00' 00"
Sunlit
Object was in daylight at epoch
Visualization orbit readout
Latitude
Unknown
Longitude
Unknown
Altitude
Unknown
Speed
Unknown
Apparent Right ascension
Unknown
Apparent Declination
Unknown
Sunlit
N/A
Visualization observer readout
Local Sidereal Time
21:10:08
Azimuth
Unknown
Elevation
Unknown
Doppler factor
Unknown
Orbital elements
Apogee altitude
33,909.889 km
Perigee altitude
33,621.415 km
Semi-major axis
40,143.789 km
Eccentricity
0.00359
Inclination
7.994°
RAAN
47.0616°
Arg. of periapsis
77.9337°
True anomaly
282.11687°
Mean anomaly
282.5192°
Eccentric anomaly
282.31808°
Mean motion
0.26985 °/min
Orbital period
1,334.1 mins
BSTAR
0
Loading maneuver chart data...
Computing Atmospheric mass density...
Loading historical data...
Loading historical data...
Loading historical data...
Loading historical data...
Loading historical data...
Loading historical data...
Loading historical data...

Documentation

Showing up to 5 results
|